DECSS EDLV-EDLV

Flight info

Callsign DECSS
Flight time N/A
Altitude 3500
Route NOVEMBER HMM OSN SAS HLZ SUVAL LWB
Aircraft C210/L-VGD/A

Departure

Time 2026-04-26 10:53
Airport Weeze (Niederrhein) Airport (EDLV)

Arrival

Time N/A
Airport Weeze (Niederrhein) Airport (EDLV)
Time Latitude Longitude Altitude Speed Heading
2026-04-26 10:48 51.59938 6.16014 108 ft 0 kts 316°
2026-04-26 10:50 51.59939 6.16013 108 ft 1 kts 322°
2026-04-26 10:50 51.59999 6.15983 108 ft 15 kts 328°
2026-04-26 10:51 51.60072 6.15944 110 ft 0 kts 360°
2026-04-26 10:51 51.60149 6.15945 109 ft 18 kts
2026-04-26 10:51 51.60211 6.15870 110 ft 13 kts 287°
2026-04-26 10:52 51.60217 6.15594 114 ft 43 kts 269°
2026-04-26 10:52 51.60226 6.14876 111 ft 81 kts 272°
2026-04-26 10:52 51.60269 6.13940 266 ft 84 kts 274°
2026-04-26 10:52 51.60295 6.12983 525 ft 87 kts 270°
2026-04-26 10:53 51.60342 6.11946 691 ft 103 kts 293°
2026-04-26 10:53 51.60945 6.11312 821 ft 109 kts 357°
2026-04-26 10:53 51.61609 6.11610 1101 ft 94 kts 41°
2026-04-26 10:54 51.62408 6.13022 1576 ft 83 kts 49°
2026-04-26 10:54 51.62791 6.13689 1787 ft 82 kts 47°
2026-04-26 10:54 51.63195 6.14390 1932 ft 91 kts 49°
2026-04-26 10:54 51.63662 6.15194 2002 ft 105 kts 48°
2026-04-26 10:55 51.64177 6.16073 2145 ft 108 kts 48°
2026-04-26 10:55 51.64723 6.17001 2254 ft 119 kts 48°
2026-04-26 10:55 51.65293 6.17978 2388 ft 121 kts 49°
2026-04-26 10:55 51.65572 6.18759 2431 ft 124 kts 73°
2026-04-26 10:56 51.65816 6.20615 2574 ft 131 kts 77°
2026-04-26 10:56 51.66018 6.22049 2674 ft 131 kts 77°
2026-04-26 10:56 51.66220 6.23491 2772 ft 136 kts 77°
2026-04-26 10:56 51.66426 6.24978 2869 ft 138 kts 76°
2026-04-26 10:57 51.66640 6.26519 2942 ft 141 kts 77°
2026-04-26 10:57 51.66849 6.28029 3023 ft 139 kts 77°
2026-04-26 10:57 51.67059 6.29542 3119 ft 139 kts 77°
2026-04-26 10:57 51.67272 6.31092 3191 ft 143 kts 77°
2026-04-26 10:58 51.67490 6.32665 3283 ft 146 kts 77°
2026-04-26 10:58 51.67712 6.34270 3350 ft 147 kts 77°
2026-04-26 10:58 51.67931 6.35857 3434 ft 144 kts 77°
2026-04-26 10:58 51.68148 6.37434 3492 ft 145 kts 76°
2026-04-26 10:59 51.68368 6.39034 3493 ft 147 kts 76°
2026-04-26 10:59 51.68594 6.40669 3507 ft 153 kts 76°
2026-04-26 10:59 51.68826 6.42363 3515 ft 155 kts 76°
2026-04-26 10:59 51.69062 6.44082 3497 ft 156 kts 76°
2026-04-26 11:00 51.69295 6.45786 3499 ft 154 kts 76°
2026-04-26 11:00 51.69522 6.47450 3500 ft 154 kts 76°
2026-04-26 11:00 51.69753 6.49140 3495 ft 156 kts 77°
2026-04-26 11:00 51.69991 6.50882 3501 ft 159 kts 76°
2026-04-26 11:01 51.70224 6.52593 3503 ft 157 kts 76°
2026-04-26 11:01 51.70457 6.54318 3495 ft 157 kts 76°
2026-04-26 11:01 51.70692 6.56029 3496 ft 156 kts 76°
2026-04-26 11:01 51.70924 6.57739 3487 ft 155 kts 77°
2026-04-26 11:02 51.71158 6.59455 3503 ft 159 kts 76°
2026-04-26 11:02 51.71396 6.61201 3494 ft 157 kts 76°
2026-04-26 11:02 51.71627 6.62909 3497 ft 155 kts 77°
2026-04-26 11:02 51.71856 6.64621 3496 ft 156 kts 77°
2026-04-26 11:03 51.72088 6.66335 3491 ft 156 kts 77°
2026-04-26 11:03 51.72320 6.68037 3493 ft 157 kts 77°
2026-04-26 11:03 51.72547 6.69741 3497 ft 155 kts 76°
2026-04-26 11:03 51.72773 6.71428 3490 ft 156 kts 77°
2026-04-26 11:04 51.73005 6.73155 3498 ft 159 kts 77°
2026-04-26 11:04 51.73240 6.74892 3494 ft 157 kts 77°
2026-04-26 11:04 51.73470 6.76611 3496 ft 156 kts 77°
2026-04-26 11:04 51.73699 6.78314 3498 ft 155 kts 76°
2026-04-26 11:05 51.73929 6.80028 3495 ft 157 kts 76°
2026-04-26 11:05 51.74158 6.81750 3495 ft 157 kts 77°
2026-04-26 11:05 51.74390 6.83486 3496 ft 158 kts 76°
2026-04-26 11:05 51.74620 6.85209 3492 ft 156 kts 77°
2026-04-26 11:06 51.74847 6.86913 3501 ft 157 kts 77°
2026-04-26 11:06 51.75000 6.88057 3492 ft 157 kts 77°
2026-04-26 11:06 51.75307 6.90382 3489 ft 161 kts 77°
2026-04-26 11:06 51.75542 6.92158 3502 ft 161 kts 77°
2026-04-26 11:07 51.75781 6.93920 3493 ft 160 kts 76°
2026-04-26 11:07 51.76010 6.95677 3491 ft 160 kts 77°
2026-04-26 11:07 51.76240 6.97425 3488 ft 159 kts 77°
2026-04-26 11:07 51.76470 6.99173 3484 ft 159 kts 77°
2026-04-26 11:08 51.76699 7.00903 3486 ft 156 kts 77°
2026-04-26 11:08 51.76927 7.02646 3493 ft 160 kts 77°
2026-04-26 11:08 51.77160 7.04411 3486 ft 160 kts 77°
2026-04-26 11:08 51.77393 7.06173 3490 ft 162 kts 77°
2026-04-26 11:09 51.77626 7.07959 3492 ft 162 kts 77°
2026-04-26 11:09 51.77856 7.09718 3489 ft 159 kts 77°
2026-04-26 11:09 51.78080 7.11430 3489 ft 156 kts 77°
2026-04-26 11:09 51.78304 7.13141 3480 ft 156 kts 77°
2026-04-26 11:10 51.78527 7.14850 3483 ft 155 kts 77°
2026-04-26 11:10 51.78752 7.16563 3493 ft 158 kts 77°
2026-04-26 11:10 51.78977 7.18295 3491 ft 158 kts 77°
2026-04-26 11:10 51.79203 7.20031 3495 ft 159 kts 77°
2026-04-26 11:11 51.79429 7.21776 3494 ft 158 kts 77°
2026-04-26 11:11 51.79653 7.23500 3491 ft 159 kts 77°
2026-04-26 11:11 51.79878 7.25241 3493 ft 158 kts 77°
2026-04-26 11:11 51.80102 7.26970 3489 ft 157 kts 77°
2026-04-26 11:12 51.80325 7.28696 3496 ft 158 kts 77°
2026-04-26 11:12 51.80549 7.30438 3488 ft 158 kts 78°
2026-04-26 11:12 51.80772 7.32164 3494 ft 156 kts 78°
2026-04-26 11:12 51.80997 7.33905 3491 ft 160 kts 78°
2026-04-26 11:13 51.81146 7.35064 3490 ft 158 kts 78°
2026-04-26 11:13 51.81371 7.36812 3485 ft 159 kts 78°
2026-04-26 11:13 51.81596 7.38568 3496 ft 161 kts 78°
2026-04-26 11:13 51.81823 7.40334 3491 ft 159 kts 78°
2026-04-26 11:14 51.82045 7.42070 3482 ft 156 kts 78°
2026-04-26 11:14 51.82265 7.43790 3491 ft 158 kts 78°
2026-04-26 11:14 51.82487 7.45533 3492 ft 159 kts 78°
2026-04-26 11:14 51.82711 7.47288 3496 ft 160 kts 78°
2026-04-26 11:15 51.82937 7.49052 3492 ft 163 kts 78°
2026-04-26 11:15 51.83165 7.50828 3497 ft 161 kts 78°
2026-04-26 11:15 51.83392 7.52627 3485 ft 163 kts 78°
2026-04-26 11:15 51.83617 7.54405 3474 ft 159 kts 78°
2026-04-26 11:16 51.83838 7.56148 3480 ft 157 kts 78°
2026-04-26 11:16 51.84056 7.57865 3476 ft 155 kts 78°
2026-04-26 11:16 51.84271 7.59567 3479 ft 154 kts 78°
2026-04-26 11:16 51.84484 7.61263 3488 ft 155 kts 78°
2026-04-26 11:17 51.84698 7.62964 3482 ft 156 kts 78°
2026-04-26 11:17 51.84916 7.64686 3480 ft 155 kts 78°
2026-04-26 11:17 51.85131 7.66390 3483 ft 154 kts 78°
2026-04-26 11:17 51.85347 7.68100 3483 ft 155 kts 78°
2026-04-26 11:18 51.85559 7.69802 3486 ft 154 kts 78°
2026-04-26 11:18 51.86018 7.71383 3477 ft 159 kts 51°
2026-04-26 11:18 51.86796 7.72670 3474 ft 160 kts 47°
2026-04-26 11:18 51.87568 7.73957 3486 ft 159 kts 47°
2026-04-26 11:19 51.88342 7.75246 3482 ft 161 kts 47°
2026-04-26 11:19 51.89115 7.76532 3482 ft 161 kts 47°
2026-04-26 11:19 51.89900 7.77837 3490 ft 162 kts 47°
2026-04-26 11:19 51.90682 7.79141 3493 ft 161 kts 47°
2026-04-26 11:20 51.91468 7.80455 3486 ft 162 kts 47°
2026-04-26 11:20 51.91989 7.81324 3496 ft 163 kts 47°
2026-04-26 11:20 51.93051 7.83096 3489 ft 163 kts 47°
2026-04-26 11:20 51.93846 7.84426 3491 ft 165 kts 47°
2026-04-26 11:21 51.94641 7.85752 3488 ft 164 kts 47°
2026-04-26 11:21 51.95430 7.87072 3476 ft 162 kts 47°
2026-04-26 11:21 51.96205 7.88370 3478 ft 162 kts 47°
2026-04-26 11:21 51.96981 7.89669 3475 ft 160 kts 47°
2026-04-26 11:22 51.97755 7.90965 3487 ft 160 kts 47°
2026-04-26 11:22 51.98535 7.92274 3479 ft 161 kts 47°
2026-04-26 11:22 51.99307 7.93568 3475 ft 159 kts 47°
2026-04-26 11:22 52.00076 7.94858 3480 ft 159 kts 47°
2026-04-26 11:23 52.00854 7.96166 3473 ft 161 kts 47°
2026-04-26 11:23 52.01623 7.97455 3482 ft 158 kts 47°
2026-04-26 11:23 52.02389 7.98748 3473 ft 158 kts 47°
2026-04-26 11:23 52.03161 8.00040 3484 ft 160 kts 47°
2026-04-26 11:24 52.03943 8.01357 3502 ft 165 kts 48°
2026-04-26 11:24 52.04747 8.02712 3501 ft 167 kts 47°
2026-04-26 11:24 52.05552 8.04064 3492 ft 165 kts 47°
2026-04-26 11:24 52.06331 8.05366 3484 ft 161 kts 47°
2026-04-26 11:25 52.07108 8.06690 3494 ft 163 kts 48°
2026-04-26 11:25 52.07892 8.08013 3491 ft 160 kts 48°
2026-04-26 11:25 52.08664 8.09315 3483 ft 159 kts 47°
2026-04-26 11:25 52.09436 8.10616 3484 ft 161 kts 47°
2026-04-26 11:26 52.10216 8.11936 3489 ft 162 kts 47°
2026-04-26 11:26 52.11004 8.13268 3483 ft 163 kts 48°
2026-04-26 11:26 52.11785 8.14586 3481 ft 160 kts 48°
2026-04-26 11:26 52.12552 8.15885 3477 ft 159 kts 47°
2026-04-26 11:27 52.13320 8.17184 3480 ft 159 kts 47°
2026-04-26 11:27 52.14088 8.18485 3479 ft 159 kts 48°
2026-04-26 11:27 52.14851 8.19780 3477 ft 158 kts 48°
2026-04-26 11:27 52.15604 8.21058 3475 ft 158 kts 47°
2026-04-26 11:28 52.16373 8.22365 3483 ft 162 kts 48°
2026-04-26 11:28 52.17155 8.23691 3483 ft 162 kts 47°
2026-04-26 11:28 52.17927 8.24994 3484 ft 158 kts 47°
2026-04-26 11:28 52.18683 8.26281 3476 ft 157 kts 48°
2026-04-26 11:29 52.19439 8.27575 3489 ft 158 kts 48°
2026-04-26 11:29 52.19984 8.29092 3472 ft 155 kts 75°
2026-04-26 11:29 52.20103 8.30837 3482 ft 156 kts 87°
2026-04-26 11:29 52.20168 8.32604 3482 ft 156 kts 86°
2026-04-26 11:30 52.20237 8.34375 3489 ft 158 kts 87°
2026-04-26 11:30 52.20283 8.35573 3487 ft 161 kts 87°
2026-04-26 11:30 52.20373 8.37986 3485 ft 159 kts 87°
2026-04-26 11:30 52.20440 8.39780 3486 ft 158 kts 87°
2026-04-26 11:31 52.20508 8.41567 3491 ft 160 kts 87°
2026-04-26 11:31 52.20575 8.43355 3493 ft 159 kts 87°
2026-04-26 11:31 52.20642 8.45189 3485 ft 162 kts 87°
2026-04-26 11:31 52.20710 8.47014 3479 ft 159 kts 87°
2026-04-26 11:32 52.20776 8.48814 3482 ft 159 kts 87°
2026-04-26 11:32 52.20842 8.50610 3477 ft 158 kts 87°
2026-04-26 11:32 52.20908 8.52393 3480 ft 158 kts 87°
2026-04-26 11:32 52.20972 8.54187 3479 ft 159 kts 87°
2026-04-26 11:33 52.21039 8.55984 3480 ft 158 kts 87°
2026-04-26 11:33 52.21102 8.57755 3479 ft 159 kts 87°
2026-04-26 11:33 52.21167 8.59557 3474 ft 159 kts 87°
2026-04-26 11:33 52.21231 8.61361 3474 ft 159 kts 87°
2026-04-26 11:34 52.21295 8.63162 3482 ft 160 kts 87°
2026-04-26 11:34 52.21359 8.64981 3483 ft 161 kts 87°
2026-04-26 11:34 52.21424 8.66813 3487 ft 162 kts 87°
2026-04-26 11:34 52.21488 8.68639 3486 ft 161 kts 87°
2026-04-26 11:35 52.21551 8.70461 3479 ft 161 kts 87°
2026-04-26 11:35 52.21615 8.72283 3474 ft 160 kts 87°
2026-04-26 11:35 52.21678 8.74081 3472 ft 158 kts 87°
2026-04-26 11:35 52.21719 8.75269 3472 ft 158 kts 87°
2026-04-26 11:36 52.21800 8.77650 3471 ft 159 kts 87°
2026-04-26 11:36 52.21862 8.79463 3468 ft 158 kts 87°
2026-04-26 11:36 52.21923 8.81253 3469 ft 158 kts 87°
2026-04-26 11:36 52.21984 8.83048 3469 ft 159 kts 87°
2026-04-26 11:37 52.22044 8.84816 3469 ft 158 kts 87°
2026-04-26 11:37 52.22105 8.86622 3466 ft 160 kts 87°
2026-04-26 11:37 52.22166 8.88419 3470 ft 158 kts 87°
2026-04-26 11:37 52.22225 8.90229 3465 ft 159 kts 87°
2026-04-26 11:38 52.22285 8.92027 3471 ft 158 kts 87°
2026-04-26 11:38 52.22343 8.93812 3466 ft 157 kts 87°
2026-04-26 11:38 52.22400 8.95585 3470 ft 157 kts 86°
2026-04-26 11:38 52.22461 8.97381 3465 ft 158 kts 87°
2026-04-26 11:39 52.22518 8.99161 3464 ft 159 kts 87°
2026-04-26 11:39 52.22576 9.00965 3463 ft 159 kts 87°
2026-04-26 11:39 52.22635 9.02757 3464 ft 157 kts 87°
2026-04-26 11:39 52.22692 9.04536 3463 ft 156 kts 87°
2026-04-26 11:40 52.22749 9.06313 3463 ft 156 kts 87°
2026-04-26 11:40 52.22803 9.08088 3472 ft 157 kts 87°
2026-04-26 11:40 52.22862 9.09885 3469 ft 159 kts 87°
2026-04-26 11:40 52.22921 9.11681 3483 ft 159 kts 86°
2026-04-26 11:41 52.22977 9.13498 3484 ft 162 kts 87°
2026-04-26 11:42 52.23366 9.26250 3465 ft 158 kts 87°
2026-04-26 11:43 52.23422 9.28033 3466 ft 158 kts 87°
2026-04-26 11:43 52.23474 9.29812 3465 ft 156 kts 87°
2026-04-26 11:43 52.23527 9.31587 3463 ft 157 kts 87°
2026-04-26 11:43 52.23579 9.33360 3465 ft 157 kts 87°
2026-04-26 11:44 52.23631 9.35123 3465 ft 157 kts 87°
2026-04-26 11:44 52.23683 9.36915 3477 ft 160 kts 87°
2026-04-26 11:44 52.23737 9.38737 3487 ft 161 kts 87°
2026-04-26 11:44 52.23790 9.40559 3489 ft 160 kts 87°
2026-04-26 11:45 52.23842 9.42362 3490 ft 158 kts 87°
2026-04-26 11:45 52.23894 9.44157 3491 ft 159 kts 87°
2026-04-26 11:45 52.23944 9.45949 3486 ft 158 kts 87°
2026-04-26 11:45 52.23995 9.47726 3484 ft 156 kts 87°
2026-04-26 11:46 52.24045 9.49488 3480 ft 156 kts 87°
2026-04-26 11:46 52.24094 9.51255 3482 ft 156 kts 87°
2026-04-26 11:46 52.24144 9.53058 3492 ft 161 kts 87°
2026-04-26 11:46 52.24197 9.54884 3488 ft 160 kts 88°
2026-04-26 11:47 52.24246 9.56694 3491 ft 158 kts 87°
2026-04-26 11:47 52.24295 9.58484 3489 ft 158 kts 88°
2026-04-26 11:47 52.24343 9.60245 3485 ft 157 kts 87°
2026-04-26 11:47 52.24392 9.62024 3484 ft 157 kts 87°
2026-04-26 11:48 52.24440 9.63803 3483 ft 157 kts 87°
2026-04-26 11:48 52.24489 9.65607 3492 ft 161 kts 88°
2026-04-26 11:48 52.24538 9.67441 3500 ft 162 kts 87°
2026-04-26 11:48 52.24587 9.69300 3494 ft 164 kts 87°
2026-04-26 11:49 52.24636 9.71162 3497 ft 163 kts 87°
2026-04-26 11:49 52.24684 9.73000 3500 ft 162 kts 88°
2026-04-26 11:49 52.24732 9.74833 3495 ft 161 kts 87°
2026-04-26 11:49 52.24778 9.76645 3493 ft 162 kts 88°
2026-04-26 11:50 52.24826 9.78481 3488 ft 162 kts 88°
2026-04-26 11:50 52.24874 9.80319 3486 ft 162 kts 87°
2026-04-26 11:50 52.24921 9.82152 3484 ft 162 kts 88°
2026-04-26 11:50 52.24967 9.83988 3485 ft 162 kts 88°
2026-04-26 11:51 52.25013 9.85819 3481 ft 161 kts 88°
2026-04-26 11:51 52.25059 9.87637 3477 ft 160 kts 88°
2026-04-26 11:51 52.25198 9.89413 3478 ft 157 kts 78°
2026-04-26 11:51 52.25430 9.91170 3485 ft 158 kts 78°
2026-04-26 11:52 52.25651 9.92893 3481 ft 156 kts 78°
2026-04-26 11:52 52.25800 9.94070 3478 ft 157 kts 78°
2026-04-26 11:52 52.26092 9.96374 3480 ft 156 kts 78°
2026-04-26 11:52 52.26314 9.98120 3483 ft 158 kts 78°
2026-04-26 11:53 52.26538 9.99888 3485 ft 159 kts 78°
2026-04-26 11:53 52.26761 10.01656 3481 ft 159 kts 78°
2026-04-26 11:53 52.26984 10.03416 3480 ft 158 kts 78°
2026-04-26 11:54 52.27424 10.06903 3476 ft 157 kts 78°
2026-04-26 11:54 52.27646 10.08662 3481 ft 159 kts 78°
2026-04-26 11:54 52.27870 10.10434 3480 ft 160 kts 78°
2026-04-26 11:54 52.28090 10.12193 3472 ft 160 kts 78°
2026-04-26 11:55 52.28313 10.13968 3480 ft 160 kts 78°
2026-04-26 11:55 52.28536 10.15754 3478 ft 160 kts 78°
2026-04-26 11:55 52.28760 10.17539 3477 ft 160 kts 78°
2026-04-26 11:55 52.28983 10.19314 3477 ft 159 kts 78°
2026-04-26 11:56 52.29204 10.21085 3478 ft 160 kts 78°
2026-04-26 11:56 52.29425 10.22868 3476 ft 160 kts 78°
2026-04-26 11:56 52.29647 10.24645 3476 ft 160 kts 78°
2026-04-26 11:56 52.29867 10.26412 3480 ft 158 kts 78°
2026-04-26 11:57 52.30088 10.28188 3479 ft 160 kts 78°
2026-04-26 11:57 52.30306 10.29949 3478 ft 159 kts 78°
2026-04-26 11:57 52.30527 10.31729 3499 ft 160 kts 78°
2026-04-26 11:57 52.30746 10.33500 3495 ft 158 kts 78°
2026-04-26 11:58 52.30965 10.35272 3494 ft 160 kts 78°
2026-04-26 11:58 52.31184 10.37045 3493 ft 159 kts 78°
2026-04-26 11:58 52.31403 10.38827 3492 ft 161 kts 78°
2026-04-26 11:58 52.31624 10.40616 3499 ft 161 kts 78°
2026-04-26 11:59 52.31845 10.42412 3496 ft 161 kts 78°
2026-04-26 11:59 52.32065 10.44205 3495 ft 161 kts 78°
2026-04-26 11:59 52.32285 10.46003 3498 ft 162 kts 78°
2026-04-26 11:59 52.32506 10.47807 3496 ft 162 kts 78°
2026-04-26 12:00 52.32725 10.49595 3496 ft 162 kts 77°
2026-04-26 12:00 52.32946 10.51402 3497 ft 162 kts 78°
2026-04-26 12:00 52.33166 10.53208 3497 ft 162 kts 78°
2026-04-26 12:00 52.33386 10.55018 3493 ft 162 kts 78°
2026-04-26 12:01 52.33604 10.56815 3498 ft 161 kts 78°
2026-04-26 12:01 52.33749 10.58006 3498 ft 161 kts 78°
2026-04-26 12:01 52.33968 10.59807 3498 ft 162 kts 78°
2026-04-26 12:01 52.34186 10.61611 3496 ft 161 kts 78°
2026-04-26 12:02 52.34473 10.63982 3468 ft 160 kts 78°
2026-04-26 12:02 52.34619 10.65192 3467 ft 160 kts 78°
2026-04-26 12:02 52.34834 10.66974 3466 ft 160 kts 78°
2026-04-26 12:02 52.35048 10.68743 3473 ft 161 kts 78°
2026-04-26 12:03 52.35265 10.70550 3470 ft 162 kts 78°
2026-04-26 12:03 52.35482 10.72354 3471 ft 161 kts 78°
2026-04-26 12:03 52.35697 10.74150 3469 ft 160 kts 78°
2026-04-26 12:03 52.35912 10.75939 3468 ft 160 kts 78°
2026-04-26 12:04 52.36125 10.77719 3461 ft 159 kts 78°
2026-04-26 12:04 52.36363 10.79490 3457 ft 159 kts 71°
2026-04-26 12:04 52.36894 10.81075 3458 ft 159 kts 58°
2026-04-26 12:04 52.37446 10.82613 3460 ft 159 kts 59°
2026-04-26 12:05 52.38000 10.84176 3461 ft 159 kts 59°
2026-04-26 12:05 52.38559 10.85748 3463 ft 160 kts 59°
2026-04-26 12:05 52.39120 10.87324 3463 ft 160 kts 59°
2026-04-26 12:05 52.39679 10.88900 3463 ft 160 kts 59°
2026-04-26 12:06 52.40236 10.90466 3464 ft 159 kts 59°
2026-04-26 12:06 52.40794 10.92036 3465 ft 160 kts 59°
2026-04-26 12:06 52.41358 10.93627 3461 ft 161 kts 59°
2026-04-26 12:06 52.41920 10.95212 3461 ft 160 kts 59°
2026-04-26 12:07 52.42481 10.96798 3463 ft 162 kts 59°
2026-04-26 12:07 52.43038 10.98371 3460 ft 161 kts 59°
2026-04-26 12:07 52.43600 10.99958 3469 ft 162 kts 59°
2026-04-26 12:07 52.44167 11.01561 3466 ft 162 kts 58°
2026-04-26 12:08 52.44728 11.03147 3465 ft 160 kts 58°
2026-04-26 12:08 52.45282 11.04717 3465 ft 159 kts 59°
2026-04-26 12:08 52.45837 11.06293 3467 ft 160 kts 58°
2026-04-26 12:08 52.46402 11.07889 3465 ft 162 kts 59°
2026-04-26 12:09 52.46965 11.09487 3468 ft 161 kts 58°
2026-04-26 12:09 52.47524 11.11077 3469 ft 161 kts 58°
2026-04-26 12:09 52.48081 11.12656 3462 ft 162 kts 58°
2026-04-26 12:09 52.48640 11.14246 3460 ft 160 kts 59°
2026-04-26 12:10 52.49199 11.15834 3462 ft 161 kts 59°
2026-04-26 12:10 52.49760 11.17431 3463 ft 161 kts 59°
2026-04-26 12:10 52.50319 11.19023 3463 ft 161 kts 59°
2026-04-26 12:10 52.50882 11.20626 3458 ft 162 kts 59°
2026-04-26 12:11 52.51441 11.22223 3463 ft 161 kts 59°
2026-04-26 12:11 52.52004 11.23828 3467 ft 163 kts 58°
2026-04-26 12:11 52.52568 11.25440 3465 ft 164 kts 59°
2026-04-26 12:11 52.53133 11.27052 3459 ft 162 kts 59°
2026-04-26 12:12 52.53694 11.28657 3461 ft 161 kts 59°
2026-04-26 12:12 52.54253 11.30255 3455 ft 161 kts 59°
2026-04-26 12:12 52.54803 11.31828 3453 ft 160 kts 58°
2026-04-26 12:12 52.55176 11.32898 3451 ft 159 kts 59°
2026-04-26 12:13 52.55906 11.34987 3452 ft 159 kts 59°
2026-04-26 12:13 52.56455 11.36564 3459 ft 160 kts 59°
2026-04-26 12:13 52.57012 11.38161 3457 ft 161 kts 59°
2026-04-26 12:13 52.57565 11.39748 3456 ft 160 kts 59°
2026-04-26 12:14 52.58115 11.41331 3453 ft 160 kts 59°
2026-04-26 12:14 52.58669 11.42919 3455 ft 160 kts 59°
2026-04-26 12:14 52.59223 11.44518 3457 ft 162 kts 59°
2026-04-26 12:14 52.59786 11.46136 3460 ft 163 kts 59°
2026-04-26 12:15 52.60352 11.47765 3463 ft 164 kts 59°
2026-04-26 12:15 52.60914 11.49386 3463 ft 162 kts 59°
2026-04-26 12:15 52.61465 11.50977 3460 ft 161 kts 59°
2026-04-26 12:15 52.62017 11.52569 3463 ft 160 kts 58°
2026-04-26 12:16 52.62570 11.54167 3460 ft 160 kts 59°
2026-04-26 12:16 52.63126 11.55775 3461 ft 162 kts 59°
2026-04-26 12:16 52.63683 11.57385 3463 ft 161 kts 59°
2026-04-26 12:16 52.64240 11.58994 3468 ft 162 kts 58°
2026-04-26 12:17 52.64801 11.60621 3467 ft 164 kts 58°
2026-04-26 12:17 52.65364 11.62251 3462 ft 163 kts 58°
2026-04-26 12:17 52.65922 11.63867 3459 ft 162 kts 58°
2026-04-26 12:17 52.66477 11.65479 3457 ft 161 kts 58°
2026-04-26 12:18 52.67026 11.67071 3457 ft 159 kts 58°
2026-04-26 12:18 52.67565 11.68640 3459 ft 160 kts 58°
2026-04-26 12:18 52.68112 11.70230 3462 ft 159 kts 58°
2026-04-26 12:18 52.68664 11.71834 3464 ft 161 kts 59°
2026-04-26 12:19 52.69214 11.73433 3459 ft 160 kts 58°
2026-04-26 12:19 52.69760 11.75023 3460 ft 159 kts 58°
2026-04-26 12:19 52.70310 11.76623 3465 ft 162 kts 59°
2026-04-26 12:19 52.70868 11.78251 3468 ft 164 kts 58°
2026-04-26 12:20 52.71429 11.79889 3461 ft 162 kts 58°
2026-04-26 12:20 52.71985 11.81514 3461 ft 164 kts 58°
2026-04-26 12:20 52.72545 11.83148 3463 ft 164 kts 58°
2026-04-26 12:20 52.73104 11.84786 3463 ft 163 kts 58°
2026-04-26 12:21 52.73652 11.86387 3458 ft 162 kts 58°
2026-04-26 12:21 52.74203 11.88000 3462 ft 161 kts 58°
2026-04-26 12:21 52.74757 11.89622 3462 ft 162 kts 58°
2026-04-26 12:21 52.75307 11.91236 3453 ft 160 kts 58°
2026-04-26 12:22 52.75853 11.92836 3454 ft 161 kts 58°
2026-04-26 12:22 52.76406 11.94458 3456 ft 162 kts 58°
2026-04-26 12:22 52.76961 11.96091 3459 ft 163 kts 59°
2026-04-26 12:22 52.77512 11.97708 3451 ft 161 kts 59°
2026-04-26 12:23 52.78052 11.99313 3462 ft 159 kts 60°
2026-04-26 12:23 52.78340 12.01078 3452 ft 160 kts 77°
2026-04-26 12:23 52.78547 12.02882 3448 ft 160 kts 76°
2026-04-26 12:23 52.78763 12.04696 3450 ft 161 kts 77°
2026-04-26 12:24 52.78976 12.06514 3465 ft 163 kts 77°
2026-04-26 12:24 52.79194 12.08368 3467 ft 165 kts 77°
2026-04-26 12:24 52.79406 12.10192 3469 ft 163 kts 76°
2026-04-26 12:25 52.79834 12.13864 3461 ft 164 kts 77°
2026-04-26 12:25 52.80050 12.15711 3464 ft 163 kts 77°
2026-04-26 12:25 52.80266 12.17553 3466 ft 163 kts 76°
2026-04-26 12:25 52.80480 12.19400 3469 ft 165 kts 76°
2026-04-26 12:26 52.80697 12.21274 3463 ft 167 kts 76°
2026-04-26 12:26 52.80911 12.23125 3459 ft 165 kts 77°
2026-04-26 12:26 52.81128 12.24990 3469 ft 166 kts 76°
2026-04-26 12:26 52.81348 12.26887 3458 ft 169 kts 76°
2026-04-26 12:27 52.81566 12.28778 3464 ft 166 kts 76°
2026-04-26 12:27 52.81779 12.30640 3451 ft 164 kts 76°
2026-04-26 12:27 52.81992 12.32491 3450 ft 163 kts 77°
2026-04-26 12:27 52.82203 12.34324 3459 ft 162 kts 76°
2026-04-26 12:28 52.82417 12.36171 3459 ft 165 kts 76°
2026-04-26 12:28 52.82628 12.38029 3453 ft 163 kts 77°
2026-04-26 12:28 52.82837 12.39854 3458 ft 163 kts 77°
2026-04-26 12:28 52.83047 12.41702 3451 ft 163 kts 77°
2026-04-26 12:29 52.83257 12.43544 3454 ft 162 kts 76°
2026-04-26 12:29 52.83468 12.45391 3452 ft 163 kts 76°
2026-04-26 12:29 52.83882 12.49041 3461 ft 162 kts 77°
2026-04-26 12:30 52.84091 12.50891 3456 ft 163 kts 76°
2026-04-26 12:30 52.84303 12.52754 3461 ft 166 kts 76°
2026-04-26 12:30 52.84514 12.54622 3464 ft 166 kts 76°
2026-04-26 12:31 52.84938 12.58377 3466 ft 165 kts 77°
2026-04-26 12:31 52.85148 12.60240 3462 ft 165 kts 77°
2026-04-26 12:31 52.85356 12.62093 3457 ft 163 kts 76°
2026-04-26 12:31 52.85563 12.63941 3462 ft 165 kts 77°
2026-04-26 12:32 52.85771 12.65797 3469 ft 167 kts 77°
2026-04-26 12:32 52.85982 12.67684 3460 ft 166 kts 77°
2026-04-26 12:32 52.86401 12.71439 3472 ft 166 kts 76°
2026-04-26 12:33 52.86611 12.73324 3468 ft 166 kts 76°
2026-04-26 12:33 52.86820 12.75203 3471 ft 164 kts 77°
2026-04-26 12:33 52.87026 12.77066 3462 ft 165 kts 76°
2026-04-26 12:33 52.87234 12.78936 3465 ft 165 kts 76°
2026-04-26 12:34 52.87442 12.80816 3472 ft 166 kts 76°
2026-04-26 12:34 52.87652 12.82712 3469 ft 168 kts 76°
2026-04-26 12:34 52.87862 12.84619 3460 ft 167 kts 77°
2026-04-26 12:34 52.88068 12.86492 3467 ft 169 kts 76°
2026-04-26 12:35 52.88279 12.88404 3472 ft 169 kts 76°
2026-04-26 12:35 52.88488 12.90309 3470 ft 168 kts 77°
2026-04-26 12:35 52.88674 12.92003 3471 ft 168 kts 77°
2026-04-26 12:35 52.88883 12.93916 3455 ft 168 kts 77°
2026-04-26 12:36 52.89090 12.95807 3458 ft 167 kts 77°
2026-04-26 12:36 52.89298 12.97708 3457 ft 167 kts 76°
2026-04-26 12:36 52.89501 12.99578 3459 ft 163 kts 76°
2026-04-26 12:36 52.89701 13.01417 3467 ft 163 kts 77°
2026-04-26 12:37 52.89906 13.03290 3465 ft 167 kts 76°
2026-04-26 12:37 52.90113 13.05197 3472 ft 170 kts 76°
2026-04-26 12:37 52.90323 13.07137 3461 ft 171 kts 77°
2026-04-26 12:37 52.90528 13.09049 3461 ft 167 kts 76°
2026-04-26 12:38 52.90732 13.10930 3454 ft 165 kts 77°
2026-04-26 12:38 52.90931 13.12801 3460 ft 166 kts 78°
2026-04-26 12:38 52.90834 13.14681 3459 ft 166 kts 101°
2026-04-26 12:38 52.90555 13.16531 3456 ft 166 kts 101°
2026-04-26 12:39 52.90288 13.18391 3467 ft 166 kts 100°
2026-04-26 12:39 52.90017 13.20266 3461 ft 169 kts 101°
2026-04-26 12:39 52.89739 13.22174 3471 ft 171 kts 100°
2026-04-26 12:39 52.89458 13.24094 3465 ft 170 kts 101°
2026-04-26 12:40 52.89177 13.26010 3476 ft 173 kts 99°
2026-04-26 12:40 52.88896 13.27931 3465 ft 170 kts 101°
2026-04-26 12:40 52.88624 13.29794 3458 ft 167 kts 101°
2026-04-26 12:40 52.88350 13.31663 3457 ft 168 kts 101°
2026-04-26 12:41 52.88076 13.33533 3461 ft 168 kts 100°
2026-04-26 12:41 52.87797 13.35434 3472 ft 172 kts 100°
2026-04-26 12:41 52.87512 13.37372 3461 ft 173 kts 100°
2026-04-26 12:41 52.87229 13.39283 3463 ft 169 kts 100°
2026-04-26 12:42 52.86949 13.41185 3476 ft 170 kts 101°
2026-04-26 12:42 52.86670 13.43075 3463 ft 167 kts 101°
2026-04-26 12:42 52.86394 13.44943 3459 ft 167 kts 101°
2026-04-26 12:42 52.86118 13.46809 3455 ft 167 kts 99°
2026-04-26 12:43 52.85842 13.48671 3461 ft 167 kts 101°
2026-04-26 12:43 52.85564 13.50545 3469 ft 168 kts 100°
2026-04-26 12:43 52.85285 13.52430 3468 ft 170 kts 101°
2026-04-26 12:43 52.85002 13.54334 3475 ft 171 kts 100°
2026-04-26 12:44 52.84720 13.56230 3461 ft 168 kts 100°
2026-04-26 12:44 52.84438 13.58107 3470 ft 169 kts 99°
2026-04-26 12:44 52.84154 13.60018 3476 ft 172 kts 101°
2026-04-26 12:44 52.83867 13.61937 3477 ft 171 kts 101°
2026-04-26 12:45 52.83540 13.63706 3489 ft 143 kts 108°
2026-04-26 12:45 52.83021 13.64980 3059 ft 136 kts 141°
2026-04-26 12:45 52.82375 13.66125 2483 ft 133 kts 120°
2026-04-26 12:45 52.81958 13.67488 1918 ft 131 kts 108°
2026-04-26 12:46 52.81632 13.68853 1468 ft 124 kts 109°
2026-04-26 12:46 52.81362 13.70125 1110 ft 111 kts 100°
2026-04-26 12:46 52.81201 13.71255 921 ft 96 kts 97°
2026-04-26 12:46 52.81087 13.72288 644 ft 90 kts 94°
2026-04-26 12:47 52.81314 13.73168 629 ft 79 kts 37°
2026-04-26 12:47 52.81835 13.73239 519 ft 79 kts 349°
2026-04-26 12:47 52.82252 13.72630 390 ft 84 kts 306°
2026-04-26 12:47 52.82425 13.71693 240 ft 89 kts 296°
2026-04-26 12:48 52.82588 13.70741 129 ft 79 kts 278°
2026-04-26 12:48 52.82656 13.69963 107 ft 58 kts 277°
2026-04-26 12:48 52.82678 13.69660 108 ft 20 kts 272°
2026-04-26 12:48 52.82713 13.69607 109 ft 12 kts 100°
2026-04-26 12:49 52.82691 13.69757 107 ft 16 kts 101°
2026-04-26 12:49 52.82672 13.69968 107 ft 20 kts 103°
2026-04-26 12:49 52.82633 13.70187 106 ft 20 kts 103°
2026-04-26 12:49 52.82609 13.70389 110 ft 15 kts 102°
2026-04-26 12:50 52.82597 13.70529 109 ft 10 kts 96°
2026-04-26 12:50 52.82586 13.70634 110 ft 9 kts 98°
2026-04-26 12:50 52.82583 13.70756 111 ft 12 kts 93°
2026-04-26 12:50 52.82565 13.70892 115 ft 12 kts 106°
2026-04-26 12:51 52.82544 13.71028 112 ft 13 kts 103°
2026-04-26 12:51 52.82536 13.71168 111 ft 12 kts 72°
2026-04-26 12:51 52.82589 13.71240 114 ft 8 kts 18°
2026-04-26 12:51 52.82628 13.71249 115 ft 4 kts
2026-04-26 12:52 52.82658 13.71249 115 ft 5 kts 344°
2026-04-26 12:52 52.82694 13.71215 115 ft 7 kts 341°
2026-04-26 12:52 52.82724 13.71210 115 ft 0 kts